Wind_Speed
21 20 19 19 19 19 18 17 16 17 17 15 15 15 15 15 15 14 14 13 13 14 15 14 13 12 13 14 15 16 18 19 19 19 21 22 22 21 20 19 17 16 15 13
21 20 20 20 19 18 17 17 17 17 17 16 14 14 14 15 15 14 14 13 13 14 14 14 12 13 13 14 15 16 17 19 19 19 20 22 21 20 19 19 18 17 15 14
21 21 21 20 19 18 17 17 17 17 16 15 14 12 14 15 15 14 13 13 13 14 14 13 11 11 12 12 14 15 16 18 19 20 20 22 21 19 19 18 18 17 16 15
22 21 21 20 19 17 17 17 17 16 15 15 14 12 15 15 15 13 13 13 13 13 12 11 10 11 11 12 12 15 16 17 18 19 19 20 20 20 20 18 18 17 17 16
21 21 20 19 19 18 18 17 16 15 15 14 14 13 13 15 14 13 13 13 12 12 11 10 9 9 10 11 11 12 15 16 18 19 19 19 20 20 21 20 19 18 17 17
21 21 20 19 19 18 18 16 15 15 14 13 14 13 11 13 13 13 13 12 12 11 10 9 9 8 8 9 10 11 13 16 17 18 18 19 19 20 21 20 20 19 18 17
20 20 19 19 18 18 17 15 13 13 13 13 15 13 11 12 12 12 12 11 11 10 9 9 9 8 8 9 10 11 12 15 17 18 18 19 19 20 20 20 20 19 18 18
18 18 19 18 18 17 17 16 14 13 12 13 15 12 11 12 12 11 11 10 10 9 8 8 8 8 8 9 9 10 12 15 15 17 18 19 19 20 20 20 20 20 19 18
17 17 18 18 18 19 18 17 16 16 14 13 13 13 12 12 12 11 11 11 10 9 8 8 8 9 8 8 8 9 11 14 15 16 18 19 19 20 20 20 21 20 20 19
18 17 18 18 18 19 19 18 18 17 15 13 13 13 12 13 12 11 11 11 11 10 9 9 9 9 8 8 8 8 9 11 14 15 17 19 19 19 20 19 19 19 20 19
18 17 17 18 19 18 19 19 19 18 17 15 13 13 15 13 12 12 12 12 11 10 9 9 10 10 9 8 8 8 8 11 13 15 16 18 18 19 19 19 19 19 19 19
19 17 17 18 19 19 19 19 19 19 18 18 16 15 17 14 14 14 13 13 12 11 10 10 10 10 10 9 9 9 9 11 12 14 16 17 18 18 19 19 19 19 18 19
20 19 18 18 19 20 21 20 20 20 19 19 17 17 18 16 16 15 15 14 13 13 11 10 10 10 10 11 10 10 9 11 13 13 15 16 16 17 18 19 18 18 19 19
22 21 19 18 19 20 20 20 21 21 20 19 19 19 20 19 17 17 17 16 14 13 12 11 11 10 10 11 11 11 10 11 12 13 14 16 16 17 18 18 19 19 19 19
23 23 22 22 22 21 21 21 22 22 21 21 20 21 21 20 19 19 18 18 16 15 14 12 12 11 11 11 11 12 11 11 12 13 14 16 16 17 18 18 18 18 18 19
25 24 23 23 23 23 23 23 23 22 22 22 22 22 22 22 20 19 19 19 18 17 16 14 14 13 12 12 13 13 12 12 13 13 14 15 16 17 17 18 18 19 19 19
26 25 24 24 24 23 24 23 23 23 23 23 23 23 22 22 21 21 20 21 20 19 18 17 15 15 14 14 14 14 14 13 14 14 15 16 17 18 18 19 19 20 20 20
25 24 24 24 24 25 25 24 24 24 24 24 24 24 23 23 22 22 22 22 21 21 20 20 18 16 16 16 15 15 16 16 15 15 16 17 18 19 20 20 21 21 22 22
25 25 24 24 24 25 25 24 23 24 24 24 25 24 24 24 23 24 24 23 23 23 23 22 21 20 19 18 18 18 18 18 18 18 18 18 19 20 21 22 23 23 24 24
24 24 24 25 24 24 25 23 23 23 24 23 24 24 23 24 25 25 24 25 25 25 25 24 23 22 22 21 20 20 19 20 20 20 20 21 22 22 23 23 24 25 25 25
23 24 24 24 24 25 25 23 22 23 24 22 22 23 23 23 24 25 25 25 26 27 26 25 25 25 24 24 23 22 21 21 22 23 23 23 23 23 24 25 26 27 27 27
23 23 24 24 24 25 23 22 22 22 23 22 22 23 23 23 23 24 25 25 26 27 27 26 26 26 26 25 25 25 25 25 25 24 24 25 25 26 26 27 27 28 28 28
23 23 23 24 25 24 23 22 22 22 22 21 22 22 23 23 23 24 25 25 25 26 26 27 26 26 26 26 26 26 27 27 27 27 26 26 27 27 28 28 28 29 29 30
22 22 21 22 22 22 22 22 22 21 21 20 21 22 22 22 23 24 25 25 25 25 26 27 26 26 27 27 26 27 27 28 28 28 28 29 28 28 28 28 29 30 31 31
20 20 20 21 21 21 21 22 21 21 21 21 21 20 21 22 22 23 24 25 26 26 27 27 27 28 28 28 28 28 28 29 30 30 31 31 31 32 31 31 31 32 32 33
20 20 20 21 20 20 20 20 19 19 19 20 20 20 21 22 22 22 23 25 25 25 26 27 27 28 28 29 30 31 31 31 32 32 32 33 33 33 32 32 33 34 34 34
Wind_Direction
255 253 251 249 247 247 250 249 252 258 266 268 272 275 280 282 284 288 293 295 292 289 288 285 276 267 262 258 253 241 230 227 221 220 220 219 219 219 222 223 221 217 216 216
249 248 246 246 247 247 248 248 251 258 263 267 271 275 280 281 284 287 290 292 294 293 291 287 273 260 259 255 248 237 231 225 220 219 218 217 216 218 220 221 219 213 211 210
243 243 244 244 245 246 247 247 250 255 261 269 272 278 283 286 286 286 288 293 295 297 293 285 270 258 253 253 242 234 230 225 223 218 217 218 217 218 218 217 217 212 206 204
239 240 240 240 241 242 243 246 249 253 257 266 271 275 282 285 287 286 289 293 294 297 291 280 271 261 253 251 244 235 229 225 222 219 217 216 215 213 212 212 210 207 204 202
239 239 238 237 238 239 239 244 248 252 257 264 273 274 278 284 284 285 291 293 293 296 290 279 268 267 256 249 241 238 230 224 221 220 218 218 215 213 211 207 205 205 204 202
234 235 234 234 236 237 240 244 250 253 257 265 267 271 275 281 277 280 289 293 291 291 285 278 271 265 254 248 242 240 228 221 219 217 216 216 213 210 207 204 205 205 205 204
233 234 233 232 235 238 239 241 248 255 258 262 266 271 273 274 276 279 285 291 291 287 279 270 267 264 257 249 243 237 227 223 219 215 212 210 208 206 205 204 205 206 206 205
229 233 234 233 233 238 237 235 235 242 252 260 268 270 271 275 277 281 283 286 290 286 274 264 263 262 258 245 241 236 225 220 216 212 210 208 206 206 206 205 205 207 207 206
223 228 233 233 231 231 234 233 234 243 250 254 266 270 267 273 276 280 279 279 282 282 271 259 256 255 256 251 243 232 224 216 213 211 208 206 206 207 207 207 208 208 209 209
221 225 231 233 234 234 233 235 239 241 247 255 267 276 267 264 269 271 272 274 276 274 267 255 254 249 249 246 240 232 219 212 208 207 206 206 207 208 206 206 206 207 210 210
220 223 231 233 234 236 237 236 239 242 245 249 259 266 262 260 261 264 268 270 271 267 262 251 249 244 244 241 234 229 223 211 207 206 205 207 207 208 208 209 210 210 211 212
222 224 230 235 236 235 237 238 242 246 254 253 254 260 263 258 258 259 261 263 264 261 256 251 247 242 240 236 233 229 224 213 210 208 206 207 208 209 211 212 214 214 212 214
228 229 231 239 243 241 239 242 246 250 254 257 257 261 262 258 257 256 256 257 257 255 254 253 251 242 240 234 229 227 226 216 212 209 209 210 210 212 214 216 217 218 218 217
235 237 234 236 243 247 246 246 249 252 257 261 259 256 260 259 254 251 249 249 249 249 248 249 246 238 239 235 230 228 225 217 214 214 214 214 214 215 215 218 221 222 221 220
238 241 243 243 245 249 250 250 252 255 258 258 258 257 256 256 252 246 243 242 240 241 242 244 244 236 236 235 230 228 226 221 219 220 221 217 217 219 220 223 222 223 223 224
241 244 247 248 250 251 251 251 253 256 259 258 257 256 254 254 248 241 238 237 235 237 237 239 242 239 235 232 226 224 223 223 222 221 222 221 220 221 223 224 225 225 226 229
242 245 246 249 251 254 254 252 254 257 258 258 256 254 252 249 245 240 237 236 236 236 236 234 235 234 233 232 227 225 225 226 226 226 225 225 224 225 226 229 230 231 233 235
241 243 246 249 252 253 254 254 255 256 256 256 255 254 250 246 243 240 237 236 235 233 233 233 233 235 235 234 233 232 231 231 232 232 230 230 231 231 232 234 235 236 238 240
241 243 246 248 251 255 255 256 257 255 254 253 252 250 247 243 241 240 238 235 233 232 232 233 234 236 236 236 236 236 236 236 237 239 238 238 237 237 238 239 240 241 242 244
242 243 245 246 249 252 254 255 255 255 253 250 249 247 246 242 239 239 238 236 235 233 234 235 235 236 237 237 238 240 240 239 240 241 241 242 242 243 243 244 245 246 247 248
243 245 245 245 247 250 251 252 253 252 252 250 248 245 244 243 240 238 237 236 236 235 235 236 236 236 237 238 240 241 241 240 241 243 244 244 246 246 247 249 250 251 251 252
242 244 244 245 247 249 249 250 250 250 251 249 247 244 242 243 241 238 237 237 236 237 237 237 237 236 237 240 241 242 243 243 244 245 247 247 248 249 249 251 253 253 254 255
240 241 243 242 245 249 249 250 250 251 250 248 246 243 241 241 240 238 238 238 238 239 239 237 237 236 237 239 240 242 244 245 245 245 247 249 251 251 252 253 255 255 256 258
236 237 240 241 243 246 247 248 250 250 248 247 245 243 241 240 239 238 237 238 239 238 238 238 238 238 238 238 241 243 244 245 245 246 248 251 252 253 254 256 257 257 258 260
232 234 235 238 241 243 244 246 247 247 246 247 243 241 240 240 239 238 239 238 238 238 238 238 240 241 240 240 242 244 246 247 249 250 252 253 253 253 254 256 258 260 261 262
229 231 232 235 238 240 242 244 245 245 244 243 240 241 241 241 241 241 239 239 239 239 239 239 240 241 242 241 243 245 247 248 249 251 253 254 255 254 254 256 259 261 264 265
Height
5841 5843 5845 5846 5847 5849 5850 5852 5853 5853 5852 5853 5854 5854 5853 5852 5852 5851 5849 5848 5846 5844 5843 5842 5841 5840 5840 5841 5842 5843 5845 5847 5849 5851 5854 5857 5860 5862 5865 5867 5870 5872 5874 5876
5836 5838 5839 5840 5842 5844 5846 5848 5849 5849 5849 5850 5850 5851 5850 5849 5848 5848 5846 5845 5843 5841 5840 5838 5838 5837 5838 5838 5839 5840 5842 5844 5846 5849 5851 5854 5857 5859 5862 5864 5867 5869 5872 5874
5831 5833 5834 5836 5838 5840 5842 5844 5844 5845 5845 5846 5847 5848 5847 5846 5845 5844 5843 5842 5840 5838 5837 5835 5835 5835 5835 5835 5836 5837 5839 5841 5843 5845 5848 5850 5853 5856 5859 5862 5864 5867 5870 5873
5825 5827 5829 5831 5833 5836 5838 5839 5840 5841 5843 5844 5845 5846 5844 5843 5842 5841 5840 5839 5837 5835 5834 5832 5832 5832 5832 5832 5833 5834 5835 5838 5840 5843 5845 5847 5850 5853 5856 5859 5862 5865 5868 5871
5820 5822 5824 5827 5829 5831 5833 5834 5836 5837 5839 5840 5841 5842 5843 5840 5839 5838 5837 5836 5834 5833 5831 5830 5830 5830 5830 5830 5830 5831 5832 5834 5837 5840 5842 5844 5847 5850 5853 5856 5860 5863 5866 5869
5815 5817 5820 5822 5824 5827 5829 5831 5833 5834 5836 5838 5838 5838 5840 5837 5836 5835 5834 5832 5831 5830 5829 5828 5828 5828 5828 5828 5828 5829 5830 5832 5834 5837 5839 5841 5844 5848 5851 5854 5858 5861 5864 5867
5811 5813 5815 5818 5820 5823 5825 5829 5831 5833 5834 5836 5834 5834 5836 5833 5832 5832 5831 5830 5828 5828 5827 5826 5826 5826 5826 5826 5826 5826 5827 5829 5832 5834 5836 5839 5842 5845 5849 5852 5856 5859 5862 5865
5807 5810 5812 5814 5817 5819 5821 5825 5829 5831 5833 5833 5830 5830 5832 5829 5829 5828 5827 5827 5826 5825 5825 5824 5824 5824 5824 5824 5824 5824 5825 5827 5830 5832 5834 5837 5840 5843 5846 5850 5853 5857 5860 5863
5804 5807 5808 5810 5812 5815 5817 5819 5824 5825 5826 5828 5828 5827 5827 5826 5825 5825 5824 5824 5823 5823 5822 5822 5822 5822 5822 5822 5822 5823 5823 5825 5827 5830 5832 5835 5838 5841 5845 5848 5851 5854 5858 5861
5800 5803 5804 5805 5808 5810 5813 5816 5817 5820 5822 5824 5826 5825 5825 5823 5822 5822 5821 5821 5820 5820 5819 5819 5820 5820 5821 5821 5821 5821 5822 5824 5826 5828 5831 5833 5837 5840 5843 5846 5849 5852 5855 5858
5795 5799 5800 5802 5804 5806 5808 5811 5812 5815 5817 5820 5822 5824 5820 5819 5819 5818 5818 5817 5817 5817 5817 5817 5818 5818 5819 5819 5820 5821 5821 5823 5825 5827 5829 5832 5835 5838 5841 5844 5847 5850 5853 5856
5791 5794 5797 5798 5799 5801 5804 5806 5808 5811 5812 5813 5815 5820 5815 5815 5815 5815 5814 5814 5814 5814 5814 5815 5815 5816 5817 5818 5819 5820 5821 5822 5824 5826 5828 5831 5834 5837 5840 5843 5845 5848 5851 5854
5786 5790 5793 5794 5797 5797 5798 5800 5802 5804 5806 5808 5810 5815 5810 5810 5810 5810 5811 5811 5811 5811 5812 5812 5813 5814 5815 5816 5817 5818 5819 5821 5823 5825 5827 5830 5832 5835 5838 5841 5844 5846 5849 5851
5782 5784 5788 5792 5792 5792 5793 5795 5797 5799 5800 5802 5804 5806 5805 5804 5805 5806 5806 5807 5807 5808 5809 5810 5810 5811 5813 5814 5815 5816 5818 5820 5822 5824 5826 5828 5831 5833 5836 5839 5841 5844 5846 5849
5775 5778 5781 5783 5785 5786 5788 5790 5791 5793 5794 5796 5797 5798 5798 5798 5799 5800 5801 5802 5803 5805 5806 5807 5808 5808 5810 5811 5813 5814 5816 5818 5820 5822 5824 5826 5828 5831 5834 5836 5839 5841 5844 5846
5769 5772 5775 5777 5778 5780 5782 5783 5785 5786 5787 5788 5789 5791 5791 5791 5792 5794 5795 5797 5799 5801 5802 5803 5804 5806 5807 5809 5810 5812 5814 5816 5818 5820 5822 5824 5826 5829 5831 5834 5836 5838 5840 5843
5763 5766 5769 5771 5772 5773 5775 5777 5778 5779 5780 5781 5782 5784 5784 5785 5786 5788 5790 5792 5795 5797 5798 5800 5801 5802 5804 5806 5808 5810 5812 5814 5815 5817 5819 5821 5823 5826 5828 5830 5833 5835 5837 5839
5756 5759 5762 5764 5766 5767 5771 5770 5771 5772 5773 5773 5774 5776 5777 5778 5780 5782 5785 5787 5789 5792 5794 5796 5797 5799 5801 5803 5804 5806 5809 5811 5813 5815 5816 5818 5820 5822 5824 5826 5828 5831 5833 5835
5750 5753 5755 5757 5759 5760 5762 5763 5764 5764 5765 5766 5767 5768 5770 5772 5774 5776 5778 5781 5784 5786 5788 5790 5793 5795 5797 5799 5801 5802 5805 5807 5809 5811 5813 5814 5816 5818 5820 5821 5823 5826 5827 5829
5743 5746 5749 5750 5752 5754 5755 5755 5756 5758 5758 5759 5760 5761 5763 5766 5768 5770 5772 5775 5777 5780 5782 5785 5787 5790 5792 5794 5796 5798 5800 5803 5805 5806 5808 5810 5812 5813 5815 5817 5818 5820 5822 5823
5737 5739 5741 5743 5744 5746 5747 5748 5750 5752 5752 5752 5753 5755 5757 5759 5761 5764 5766 5768 5771 5773 5776 5779 5781 5784 5787 5789 5791 5794 5795 5797 5799 5801 5803 5804 5806 5808 5810 5811 5813 5814 5815 5817
5730 5732 5734 5736 5738 5741 5740 5741 5743 5744 5744 5745 5747 5748 5750 5752 5754 5757 5759 5762 5764 5767 5769 5772 5775 5778 5781 5783 5785 5788 5789 5791 5793 5795 5797 5799 5801 5802 5803 5805 5806 5807 5809 5810
5723 5725 5727 5729 5732 5732 5733 5734 5735 5736 5738 5739 5740 5742 5744 5746 5748 5751 5753 5756 5758 5761 5763 5766 5768 5771 5774 5777 5779 5781 5783 5785 5787 5789 5791 5793 5794 5796 5797 5798 5799 5800 5801 5802
5716 5718 5720 5722 5724 5725 5726 5728 5729 5730 5731 5732 5734 5736 5738 5740 5742 5744 5747 5750 5752 5754 5757 5759 5762 5765 5767 5770 5772 5774 5776 5778 5780 5782 5783 5785 5787 5788 5790 5791 5792 5793 5794 5794
5710 5712 5714 5716 5718 5719 5720 5722 5723 5724 5725 5726 5728 5730 5732 5734 5736 5738 5741 5743 5746 5748 5750 5753 5755 5758 5760 5763 5765 5767 5769 5771 5773 5774 5776 5777 5779 5780 5781 5783 5784 5784 5785 5785
5705 5707 5709 5711 5712 5714 5715 5716 5717 5718 5720 5721 5722 5724 5725 5728 5730 5732 5734 5737 5739 5741 5743 5746 5748 5750 5753 5755 5757 5759 5761 5763 5765 5766 5767 5769 5770 5771 5772 5774 5775 5775 5776 5776